Time,TemperatureF,DewpointF,PressureIn,WindDirection,WindDirectionDegrees,WindSpeedMPH,WindSpeedGustMPH,Humidity,HourlyPrecipIn,Conditions,Clouds,dailyrainin,SoftwareType,DateUTC
2013-01-14 00:13:00,74.2,65.0,30.11,ESE,115,0.0,-999.0,74,-99.99,,,0.00,weatherlink.com 1.10,2013-01-14 05:13:00,
2013-01-14 00:28:00,73.8,65.0,30.11,SSE,167,0.0,-999.0,74,-99.99,,,0.00,weatherlink.com 1.10,2013-01-14 05:28:00,
2013-01-14 00:43:00,72.9,65.0,30.12,SSE,155,0.0,-999.0,75,-99.99,,,0.00,weatherlink.com 1.10,2013-01-14 05:43:00,
2013-01-14 00:58:00,72.5,64.0,30.12,ESE,115,0.0,-999.0,75,-99.99,,,0.00,weatherlink.com 1.10,2013-01-14 05:58:00,
2013-01-14 01:13:00,72.0,64.0,30.12,SSE,166,0.0,-999.0,76,-99.99,,,0.00,weatherlink.com 1.10,2013-01-14 06:13:00,
2013-01-14 01:28:00,71.5,64.0,30.12,SSE,148,0.0,-999.0,77,-99.99,,,0.00,weatherlink.com 1.10,2013-01-14 06:28:00,
2013-01-14 01:43:00,71.2,64.0,30.12,SSE,155,0.0,-999.0,78,-99.99,,,0.00,weatherlink.com 1.10,2013-01-14 06:43:00,
2013-01-14 01:58:00,71.0,64.0,30.13,SSE,164,0.0,-999.0,79,-99.99,,,0.00,weatherlink.com 1.10,2013-01-14 06:58:00,
2013-01-14 02:13:00,70.9,64.0,30.13,SSE,156,0.0,-999.0,79,-99.99,,,0.00,weatherlink.com 1.10,2013-01-14 07:13:00,
2013-01-14 02:28:00,71.1,65.0,30.12,SSE,152,0.0,-999.0,80,-99.99,,,0.00,weatherlink.com 1.10,2013-01-14 07:28:00,
2013-01-14 02:43:00,71.0,65.0,30.12,SSE,152,0.0,-999.0,80,-99.99,,,0.00,weatherlink.com 1.10,2013-01-14 07:43:00,
2013-01-14 02:58:00,70.7,64.0,30.12,SSE,165,0.0,-999.0,80,-99.99,,,0.00,weatherlink.com 1.10,2013-01-14 07:58:00,
2013-01-14 03:13:00,70.5,64.0,30.12,SE,130,0.0,-999.0,79,-99.99,,,0.00,weatherlink.com 1.10,2013-01-14 08:13:00,
2013-01-14 03:28:00,70.3,64.0,30.12,SE,141,0.0,-999.0,79,-99.99,,,0.00,weatherlink.com 1.10,2013-01-14 08:28:00,
2013-01-14 03:43:00,69.8,63.0,30.11,SE,141,0.0,-999.0,80,-99.99,,,0.00,weatherlink.com 1.10,2013-01-14 08:43:00,
2013-01-14 03:58:00,69.2,63.0,30.11,SE,140,0.0,-999.0,80,-99.99,,,0.00,weatherlink.com 1.10,2013-01-14 08:58:00,
2013-01-14 04:13:00,69.1,63.0,30.11,SSE,153,0.0,-999.0,81,-99.99,,,0.00,weatherlink.com 1.10,2013-01-14 09:13:00,
2013-01-14 04:28:00,68.9,63.0,30.11,SSE,153,0.0,-999.0,80,-99.99,,,0.00,weatherlink.com 1.10,2013-01-14 09:28:00,
2013-01-14 04:43:00,68.7,62.0,30.11,SSE,152,0.0,-999.0,80,-99.99,,,0.00,weatherlink.com 1.10,2013-01-14 09:43:00,
2013-01-14 04:58:00,68.1,62.0,30.11,SE,141,0.0,-999.0,81,-99.99,,,0.00,weatherlink.com 1.10,2013-01-14 09:58:00,
2013-01-14 05:13:00,68.4,62.0,30.11,SE,140,0.0,-999.0,81,-99.99,,,0.00,weatherlink.com 1.10,2013-01-14 10:13:00,
2013-01-14 05:28:00,68.4,63.0,30.11,SSE,161,0.0,-999.0,82,-99.99,,,0.00,weatherlink.com 1.10,2013-01-14 10:28:00,
2013-01-14 05:58:00,68.9,63.0,30.12,SSE,152,0.0,-999.0,82,-99.99,,,0.00,weatherlink.com 1.10,2013-01-14 10:58:00,
2013-01-14 06:13:00,69.2,63.0,30.12,SSE,150,0.0,-999.0,81,-99.99,,,0.00,weatherlink.com 1.10,2013-01-14 11:13:00,
2013-01-14 06:28:00,69.1,63.0,30.13,SSE,159,0.0,-999.0,81,-99.99,,,0.00,weatherlink.com 1.10,2013-01-14 11:28:00,
2013-01-14 06:43:00,68.3,63.0,30.13,SSE,159,0.0,-999.0,82,-99.99,,,0.00,weatherlink.com 1.10,2013-01-14 11:43:00,
2013-01-14 06:58:00,66.9,62.0,30.14,SSE,159,0.0,-999.0,83,-99.99,,,0.00,weatherlink.com 1.10,2013-01-14 11:58:00,
2013-01-14 07:13:00,66.5,63.0,30.14,SSE,159,0.0,-999.0,87,-99.99,,,0.00,weatherlink.com 1.10,2013-01-14 12:13:00,
2013-01-14 07:28:00,66.2,63.0,30.14,SSE,159,0.0,-999.0,88,-99.99,,,0.00,weatherlink.com 1.10,2013-01-14 12:28:00,
2013-01-14 07:43:00,66.8,63.0,30.14,ESE,115,0.0,-999.0,88,-99.99,,,0.00,weatherlink.com 1.10,2013-01-14 12:43:00,
2013-01-14 07:58:00,69.2,64.0,30.14,SSE,165,0.0,-999.0,82,-99.99,,,0.00,weatherlink.com 1.10,2013-01-14 12:58:00,
2013-01-14 08:13:00,70.8,64.0,30.14,SSE,155,0.0,-999.0,79,-99.99,,,0.00,weatherlink.com 1.10,2013-01-14 13:13:00,
2013-01-14 08:28:00,72.2,65.0,30.14,SE,140,0.0,-999.0,78,-99.99,,,0.00,weatherlink.com 1.10,2013-01-14 13:28:00,
2013-01-14 08:43:00,73.9,66.0,30.14,SSE,163,0.0,-999.0,76,-99.99,,,0.00,weatherlink.com 1.10,2013-01-14 13:43:00,
2013-01-14 08:58:00,75.3,67.0,30.14,South,179,0.0,-999.0,74,-99.99,,,0.00,weatherlink.com 1.10,2013-01-14 13:58:00,
2013-01-14 09:13:00,76.2,66.0,30.15,ESE,123,0.0,-999.0,71,-99.99,,,0.00,weatherlink.com 1.10,2013-01-14 14:13:00,
2013-01-14 09:28:00,77.0,66.0,30.15,SSE,161,0.0,-999.0,69,-99.99,,,0.00,weatherlink.com 1.10,2013-01-14 14:28:00,
2013-01-14 09:44:00,77.4,66.0,30.15,SE,142,0.0,-999.0,68,-99.99,,,0.00,weatherlink.com 1.10,2013-01-14 14:44:00,
2013-01-14 09:59:00,77.4,66.0,30.16,SE,142,0.0,-999.0,67,-99.99,,,0.00,weatherlink.com 1.10,2013-01-14 14:59:00,
2013-01-14 10:14:00,77.5,66.0,30.15,ESE,105,0.0,-999.0,68,-99.99,,,0.00,weatherlink.com 1.10,2013-01-14 15:14:00,
2013-01-14 10:29:00,77.6,65.0,30.16,East,97,0.0,-999.0,66,-99.99,,,0.00,weatherlink.com 1.10,2013-01-14 15:29:00,
2013-01-14 10:44:00,77.8,65.0,30.15,ENE,62,0.0,-999.0,64,-99.99,,,0.00,weatherlink.com 1.10,2013-01-14 15:44:00,
2013-01-14 10:59:00,78.3,65.0,30.15,ESE,121,0.0,-999.0,63,-99.99,,,0.00,weatherlink.com 1.10,2013-01-14 15:59:00,
2013-01-14 11:14:00,78.6,65.0,30.14,SE,141,0.0,-999.0,64,-99.99,,,0.00,weatherlink.com 1.10,2013-01-14 16:14:00,
2013-01-14 11:29:00,79.1,65.0,30.14,South,175,0.0,-999.0,62,-99.99,,,0.00,weatherlink.com 1.10,2013-01-14 16:29:00,
2013-01-14 11:44:00,79.0,66.0,30.14,East,98,0.0,-999.0,64,-99.99,,,0.00,weatherlink.com 1.10,2013-01-14 16:44:00,
2013-01-14 11:59:00,79.1,65.0,30.13,ESE,105,0.0,-999.0,63,-99.99,,,0.00,weatherlink.com 1.10,2013-01-14 16:59:00,
2013-01-14 12:14:00,78.4,66.0,30.13,East,101,0.0,-999.0,65,-99.99,,,0.00,weatherlink.com 1.10,2013-01-14 17:14:00,
2013-01-14 12:29:00,78.6,65.0,30.13,SSE,153,0.0,-999.0,64,-99.99,,,0.00,weatherlink.com 1.10,2013-01-14 17:29:00,
2013-01-14 12:44:00,78.1,65.0,30.13,East,95,0.0,-999.0,65,-99.99,,,0.00,weatherlink.com 1.10,2013-01-14 17:44:00,
2013-01-14 12:59:00,78.0,65.0,30.12,ESE,121,0.0,-999.0,65,-99.99,,,0.00,weatherlink.com 1.10,2013-01-14 17:59:00,
2013-01-14 13:14:00,79.4,66.0,30.11,East,84,0.0,-999.0,63,-99.99,,,0.00,weatherlink.com 1.10,2013-01-14 18:14:00,
2013-01-14 13:29:00,79.6,66.0,30.11,SSE,159,0.0,-999.0,64,-99.99,,,0.00,weatherlink.com 1.10,2013-01-14 18:29:00,
2013-01-14 13:44:00,80.1,66.0,30.11,SSE,161,0.0,-999.0,62,-99.99,,,0.00,weatherlink.com 1.10,2013-01-14 18:44:00,
2013-01-14 13:59:00,80.0,66.0,30.12,South,183,0.0,-999.0,62,-99.99,,,0.00,weatherlink.com 1.10,2013-01-14 18:59:00,
2013-01-14 14:14:00,80.2,66.0,30.11,SE,137,0.0,-999.0,63,-99.99,,,0.00,weatherlink.com 1.10,2013-01-14 19:14:00,
2013-01-14 14:29:00,80.5,66.0,30.11,ESE,121,0.0,-999.0,61,-99.99,,,0.00,weatherlink.com 1.10,2013-01-14 19:29:00,
2013-01-14 14:44:00,80.4,66.0,30.11,SSW,210,0.0,-999.0,61,-99.99,,,0.00,weatherlink.com 1.10,2013-01-14 19:44:00,
2013-01-14 14:59:00,79.2,65.0,30.11,South,186,0.0,-999.0,63,-99.99,,,0.00,weatherlink.com 1.10,2013-01-14 19:59:00,
2013-01-14 15:14:00,79.4,66.0,30.11,SSE,148,0.0,-999.0,63,-99.99,,,0.00,weatherlink.com 1.10,2013-01-14 20:14:00,
2013-01-14 15:29:00,79.1,66.0,30.11,ESE,121,0.0,-999.0,64,-99.99,,,0.00,weatherlink.com 1.10,2013-01-14 20:29:00,
2013-01-14 15:44:00,79.2,65.0,30.12,SE,136,0.0,-999.0,63,-99.99,,,0.00,weatherlink.com 1.10,2013-01-14 20:44:00,
2013-01-14 15:59:00,78.9,66.0,30.12,SSE,165,0.0,-999.0,65,-99.99,,,0.00,weatherlink.com 1.10,2013-01-14 20:59:00,
2013-01-14 16:14:00,78.3,66.0,30.12,SSE,154,0.0,-999.0,65,-99.99,,,0.00,weatherlink.com 1.10,2013-01-14 21:14:00,
2013-01-14 16:29:00,77.2,66.0,30.13,ESE,119,0.0,-999.0,68,-99.99,,,0.00,weatherlink.com 1.10,2013-01-14 21:29:00,
2013-01-14 16:44:00,76.7,66.0,30.13,SE,140,0.0,-999.0,69,-99.99,,,0.00,weatherlink.com 1.10,2013-01-14 21:44:00,
2013-01-14 16:59:00,76.4,66.0,30.14,SSE,153,0.0,-999.0,70,-99.99,,,0.00,weatherlink.com 1.10,2013-01-14 21:59:00,
2013-01-14 17:14:00,76.1,66.0,30.14,SSE,163,0.0,-999.0,72,-99.99,,,0.00,weatherlink.com 1.10,2013-01-14 22:14:00,
2013-01-14 17:29:00,75.9,66.0,30.14,ESE,104,0.0,-999.0,71,-99.99,,,0.00,weatherlink.com 1.10,2013-01-14 22:29:00,
2013-01-14 17:44:00,75.3,66.0,30.14,SE,130,0.0,-999.0,73,-99.99,,,0.00,weatherlink.com 1.10,2013-01-14 22:44:00,
2013-01-14 17:59:00,74.7,66.0,30.15,SSE,155,0.0,-999.0,75,-99.99,,,0.00,weatherlink.com 1.10,2013-01-14 22:59:00,
2013-01-14 18:14:00,74.1,66.0,30.15,SSE,150,0.0,-999.0,76,-99.99,,,0.00,weatherlink.com 1.10,2013-01-14 23:14:00,
2013-01-14 18:29:00,73.8,66.0,30.15,SE,144,0.0,-999.0,77,-99.99,,,0.00,weatherlink.com 1.10,2013-01-14 23:29:00,
2013-01-14 18:44:00,73.4,66.0,30.15,SE,146,0.0,-999.0,78,-99.99,,,0.00,weatherlink.com 1.10,2013-01-14 23:44:00,
2013-01-14 18:59:00,73.0,66.0,30.16,SE,145,0.0,-999.0,79,-99.99,,,0.00,weatherlink.com 1.10,2013-01-14 23:59:00,
2013-01-14 19:14:00,72.3,66.0,30.16,SE,145,0.0,-999.0,80,-99.99,,,0.00,weatherlink.com 1.10,2013-01-15 00:14:00,
2013-01-14 19:29:00,72.2,66.0,30.16,ESE,123,0.0,-999.0,80,-99.99,,,0.00,weatherlink.com 1.10,2013-01-15 00:29:00,
2013-01-14 19:44:00,71.6,66.0,30.16,SE,124,0.0,-999.0,81,-99.99,,,0.00,weatherlink.com 1.10,2013-01-15 00:44:00,
2013-01-14 19:59:00,71.1,66.0,30.15,ESE,123,0.0,-999.0,83,-99.99,,,0.00,weatherlink.com 1.10,2013-01-15 00:59:00,
2013-01-14 20:14:00,70.9,66.0,30.15,SE,124,0.0,-999.0,83,-99.99,,,0.00,weatherlink.com 1.10,2013-01-15 01:14:00,
2013-01-14 20:29:00,70.6,66.0,30.15,ESE,123,0.0,-999.0,85,-99.99,,,0.00,weatherlink.com 1.10,2013-01-15 01:29:00,
2013-01-14 20:44:00,70.7,66.0,30.15,ESE,123,0.0,-999.0,85,-99.99,,,0.00,weatherlink.com 1.10,2013-01-15 01:44:00,
2013-01-14 20:59:00,70.9,66.0,30.15,SE,124,0.0,-999.0,85,-99.99,,,0.00,weatherlink.com 1.10,2013-01-15 01:59:00,
2013-01-14 21:14:00,71.0,66.0,30.14,SE,124,0.0,-999.0,85,-99.99,,,0.00,weatherlink.com 1.10,2013-01-15 02:14:00,
2013-01-14 21:29:00,71.0,66.0,30.14,ESE,121,0.0,-999.0,85,-99.99,,,0.00,weatherlink.com 1.10,2013-01-15 02:29:00,
2013-01-14 21:44:00,71.4,67.0,30.14,ESE,107,0.0,-999.0,85,-99.99,,,0.00,weatherlink.com 1.10,2013-01-15 02:44:00,
2013-01-14 21:59:00,71.1,66.0,30.14,ESE,106,0.0,-999.0,85,-99.99,,,0.00,weatherlink.com 1.10,2013-01-15 02:59:00,
2013-01-14 22:14:00,70.9,67.0,30.14,ESE,106,0.0,-999.0,86,-99.99,,,0.00,weatherlink.com 1.10,2013-01-15 03:14:00,
2013-01-14 22:29:00,71.5,67.0,30.14,ESE,115,0.0,-999.0,86,-99.99,,,0.00,weatherlink.com 1.10,2013-01-15 03:29:00,
2013-01-14 22:44:00,72.5,67.0,30.14,SE,137,0.0,-999.0,83,-99.99,,,0.00,weatherlink.com 1.10,2013-01-15 03:44:00,
2013-01-14 22:59:00,72.4,67.0,30.13,SE,134,0.0,-999.0,82,-99.99,,,0.00,weatherlink.com 1.10,2013-01-15 03:59:00,
2013-01-14 23:14:00,72.2,66.0,30.13,ESE,112,0.0,-999.0,82,-99.99,,,0.00,weatherlink.com 1.10,2013-01-15 04:14:00,
2013-01-14 23:29:00,72.1,67.0,30.13,SE,130,0.0,-999.0,83,-99.99,,,0.00,weatherlink.com 1.10,2013-01-15 04:29:00,
2013-01-14 23:44:00,72.3,67.0,30.12,SE,136,0.0,-999.0,83,-99.99,,,0.00,weatherlink.com 1.10,2013-01-15 04:44:00,
2013-01-14 23:59:00,72.6,67.0,30.12,SSE,150,0.0,-999.0,82,-99.99,,,0.00,weatherlink.com 1.10,2013-01-15 04:59:00,